Probability
0 0 0 0 0 0 0 0 0 0 0 0 0 0 0 0 0 0 0 0 0 0 0 0 0 0 0 0 0 0 0 0 0 0 0 0 0 0
0 0 0 0 0 0 0 0 0 0 0 0 0 0 0 0 0 0 0 0 0 0 0 0 0 0 0 0 0 0 0 0 0 0 0 0 0 0
0 0 0 0 0 0 0 0 0 0 0 0 0 0 0 0 0 0 0 0 0 0 0 0 0 0 0 0 0 0 0 0 0 0 0 0 0 0
0 0 0 0 0 0 0 0 0 0 0 0 0 0 0 0 0 0 0 0 0 0 0 0 0 0 0 0 0 0 0 0 0 0 0 0 0 0
0 0 0 0 0 0 0 0 0 0 0 0 0 0 0 0 0 0 0 0 0 0 0 0 0 0 0 0 0 0 0 0 0 0 0 0 0 0
0 0 0 0 0 0 0 0 0 0 0 0 0 0 0 0 0 0 0 0 0 0 0 0 0 0 0 0 0 0 0 0 0 0 0 0 0 0
0 0 0 0 0 0 0 0 0 0 0 0 0 0 0 0 0 0 0 0 0 0 0 0 0 0 0 0 0 0 0 0 0 0 0 0 0 0
0 0 0 0 0 0 0 0 0 0 0 0 0 0 0 0 0 0 0 0 0 0 0 0 0 0 0 0 0 0 0 0 0 0 0 0 0 0
0 0 0 0 0 0 0 0 0 0 0 0 0 0 0 0 0 0 0 0 0 0 0 0 0 0 0 0 0 0 0 0 0 0 0 0 0 0
0 0 0 0 0 0 0 0 0 0 0 0 0 0 0 0 0 0 0 0 0 0 0 0 0 0 0 0 0 0 0 0 0 0 0 0 0 0
0 0 0 0 0 0 0 0 0 0 0 0 0 0 0 0 0 0 0 0 0 0 0 0 0 0 0 0 0 0 0 0 0 0 0 0 0 0
0 0 0 0 0 0 0 0 0 0 0 0 0 0 0 0 0 0 0 0 0 0 0 0 0 0 0 0 0 0 0 0 0 0 0 0 0 0
0 0 0 0 0 0 0 0 0 0 0 0 0 0 0 0 0 0 0 0 0 0 0 0 0 0 0 0 0 0 0 0 0 0 0 0 0 0
0 0 0 0 0 0 0 0 0 0 0 0 0 0 0 0 0 0 0 0 0 0 0 0 0 0 0 0 0 0 0 0 0 0 0 0 0 0
0 0 0 0 0 0 0 0 0 0 0 0 0 0 0 0 0 0 0 0 0 0 0 0 0 0 0 0 0 0 0 0 0 0 0 0 0 0
0 0 0 0 0 0 0 0 0 0 0 0 0 0 0 0 0 0 0 0 0 0 0 0 0 0 0 0 0 0 0 0 0 0 0 0 0 0
0 0 0 0 0 0 0 0 0 0 0 0 0 0 0 0 0 0 0 0 0 0 0 0 0 0 0 0 0 0 0 0 0 0 0 0 0 0
0 0 0 0 0 0 0 0 0 0 0 0 0 0 0 0 0 0 0 0 0 0 0 0 0 0 0 0 0 0 0 0 0 0 0 0 0 0
0 0 0 0 0 0 0 0 0 0 0 0 0 0 0 0 0 0 0 0 0 0 0 0 0 0 0 0 0 0 0 0 0 0 0 0 0 0
0 0 0 0 0 0 0 0 0 0 0 0 0 0 0 0 0 0 0 0 0 0 0 0 0 0 0 0 0 0 0 0 0 0 0 0 0 0
0 0 0 0 0 0 0 0 0 0 0 0 0 0 0 0 0 0 0 0 0 0 0 0 0 0 0 0 0 0 0 0 0 0 0 0 0 0
0 0 0 0 0 0 0 0 0 0 0 0 0 0 0 0 0 0 0 0 0 0 0 0 0 0 0 0 0 0 0 0 0 0 0 0 0 0
0 0 0 0 0 0 0 0 0 0 0 0 0 0 0 0 0 0 0 0 0 0 0 0 0 0 0 0 0 0 0 0 0 0 0 0 0 0
Wind_Speed
6 6 5 4 3 3 3 4 5 5 5 4 3 3 3 3 5 3 2 3 3 3 3 3 3 3 4 4 5 6 6 8 8 9 10 9 9 9
5 6 5 4 4 4 4 4 4 5 4 3 3 3 4 3 5 4 3 4 3 3 3 2 1 2 3 4 5 5 6 7 8 9 10 10 10 10
5 6 6 5 5 4 4 4 4 4 4 2 1 2 4 4 3 2 2 2 2 4 3 2 1 1 2 3 4 5 6 7 8 9 10 10 11 10
7 6 6 5 6 5 4 5 4 4 4 4 3 3 3 4 4 3 2 2 1 3 4 3 2 1 1 2 3 4 6 7 8 9 9 9 10 10
7 7 7 7 7 5 5 5 4 3 3 4 4 2 2 2 3 2 2 1 1 2 3 3 3 2 1 2 3 4 5 6 7 8 9 9 9 9
6 7 7 8 8 7 6 7 5 5 4 4 4 3 3 3 3 3 2 2 2 1 2 2 3 2 1 1 2 3 5 6 7 7 7 8 8 8
5 5 6 7 8 8 6 7 7 6 5 5 4 3 4 4 4 3 3 2 2 2 1 1 1 0 1 2 2 2 3 5 6 6 6 7 8 7
4 4 4 6 8 11 11 11 11 8 7 6 5 5 6 5 4 4 4 3 3 2 3 2 1 1 1 1 3 2 3 4 5 5 6 7 7 7
4 4 3 4 7 5 8 10 11 12 11 8 7 7 6 7 7 5 4 4 4 3 3 2 1 2 2 2 4 2 2 2 3 4 5 6 7 7
4 5 5 5 6 6 5 5 5 5 7 6 6 6 6 6 7 7 6 4 2 1 3 2 2 2 1 1 4 3 2 1 2 3 4 5 6 7
4 4 5 5 10 11 7 6 5 3 4 7 7 7 8 10 9 6 5 4 3 3 3 3 2 1 1 1 2 3 2 1 1 2 2 4 5 6
3 4 8 8 11 12 8 7 8 6 5 5 5 5 4 7 11 7 7 5 3 3 4 4 3 3 1 1 1 1 1 2 1 1 2 2 4 3
4 4 5 11 12 13 11 8 10 7 6 6 4 3 3 3 3 3 4 5 4 3 4 4 3 3 2 1 1 1 0 0 1 2 2 2 2 3
5 4 5 11 12 13 11 11 13 10 5 5 5 5 4 4 3 3 3 2 2 3 5 5 4 4 4 2 2 1 0 1 0 0 1 2 2 2
5 8 10 12 12 10 12 13 11 6 6 6 6 6 4 4 4 4 4 4 4 3 3 3 4 4 3 3 2 2 1 1 1 1 0 0 0 1
6 8 11 12 9 8 8 8 6 6 7 7 6 5 5 5 4 4 4 3 3 1 2 2 3 5 3 3 3 3 2 2 1 1 1 0 0 1
6 4 3 3 4 4 4 4 5 6 7 5 6 6 6 6 5 4 4 3 3 4 3 2 2 2 2 4 3 3 3 2 2 2 2 1 1 2
8 5 5 5 6 6 6 5 5 6 6 6 6 7 7 7 6 5 4 4 4 4 4 3 3 2 1 2 5 4 3 3 2 2 2 2 2 2
7 5 5 6 6 6 6 6 6 6 6 7 7 7 7 7 6 6 6 5 4 4 4 4 4 4 4 3 3 7 5 3 3 2 2 3 2 2
5 5 6 5 5 6 6 6 6 6 6 7 7 7 7 7 7 7 7 6 5 5 4 4 5 6 6 5 3 2 7 4 4 3 2 1 2 3
5 5 5 5 5 5 5 6 6 6 7 7 8 8 8 8 7 7 7 10 7 6 7 7 6 8 3 3 1 1 2 6 6 4 4 2 1 1
5 5 5 5 5 5 5 5 5 6 7 7 8 8 8 8 8 9 8 8 7 6 6 4 5 6 4 5 4 3 2 2 4 7 7 6 4 4
5 5 5 4 4 4 4 5 6 6 6 7 7 8 8 8 7 7 8 7 7 6 6 5 5 5 5 5 4 3 3 3 2 3 3 8 9 7
Wind_Direction
195 195 200 200 190 189 174 171 173 195 218 201 186 181 169 163 165 150 147 145 131 118 98 76 50 29 20 19 8 359 357 349 344 339 337 331 323 314
189 192 203 198 188 188 186 188 188 187 204 186 183 169 168 168 167 154 166 163 168 160 146 126 81 29 20 16 3 357 354 351 348 344 341 337 330 316
196 197 204 192 191 192 186 185 191 185 198 174 141 148 158 168 161 159 163 162 184 186 186 175 154 50 14 8 359 3 358 353 349 346 343 342 336 323
205 201 205 194 195 189 187 193 194 187 179 182 172 168 171 174 166 169 168 167 179 204 203 191 191 201 335 354 356 2 356 351 350 348 344 343 341 337
207 202 200 194 199 193 189 191 187 183 172 169 171 164 154 151 152 161 159 163 198 214 215 210 212 213 255 322 343 355 350 348 348 348 347 346 347 345
213 206 200 200 202 194 193 192 181 179 173 167 165 166 161 152 154 172 187 191 202 200 220 216 212 205 233 277 331 347 346 345 347 349 351 352 351 349
218 212 207 205 205 200 197 191 181 182 178 179 178 169 175 169 185 174 181 170 206 194 192 222 198 204 273 284 296 321 337 343 347 353 356 358 358 359
220 219 209 205 207 208 208 200 191 186 189 188 191 192 193 183 164 164 155 157 221 202 174 209 178 208 235 252 261 286 324 340 349 357 2 5 6 10
221 215 215 213 203 199 204 204 205 205 196 187 193 198 184 182 168 167 174 177 198 177 156 200 189 212 226 244 243 262 304 333 352 2 11 16 18 21
229 218 213 209 205 191 188 191 197 202 200 197 197 196 188 177 177 174 170 148 109 146 158 187 194 209 213 260 258 248 257 300 345 1 18 27 26 30
245 233 224 219 214 203 192 192 196 205 205 192 189 187 187 182 166 137 140 148 180 201 183 173 175 170 195 246 271 258 251 264 319 359 24 34 34 36
248 236 230 230 223 213 203 196 203 199 177 172 171 167 168 180 179 169 164 161 163 199 189 167 161 149 198 267 279 314 318 295 306 346 26 42 50 52
248 244 239 236 234 226 216 209 212 189 174 169 161 153 147 154 162 161 166 162 165 193 174 154 151 153 162 208 276 271 246 305 343 349 10 41 72 83
254 247 243 243 242 236 227 218 210 191 165 166 171 178 178 179 169 154 147 133 139 170 164 150 150 159 150 166 223 240 254 251 189 73 357 8 33 51
261 257 255 248 242 238 232 221 208 188 171 181 190 190 181 167 144 128 110 103 82 78 125 144 144 145 149 168 180 182 198 230 192 164 140 81 10 25
264 256 256 251 241 234 229 218 202 189 185 191 186 170 153 151 156 151 148 146 132 110 68 98 143 148 154 168 168 186 190 200 188 177 163 197 241 214
272 256 241 234 228 224 214 205 194 190 194 178 172 167 168 166 165 158 149 148 158 163 160 126 105 111 150 158 174 195 189 201 200 175 158 202 250 231
271 250 237 229 228 222 214 207 204 203 194 182 178 177 177 176 170 163 161 166 173 171 166 159 144 118 74 262 207 188 183 192 186 174 161 174 256 251
265 252 241 231 227 221 215 209 209 205 193 187 185 182 178 176 173 174 175 174 177 175 170 162 161 157 167 216 229 196 178 171 160 166 180 185 215 243
260 255 249 239 230 224 218 214 209 199 194 191 186 182 180 178 178 181 181 180 178 173 173 176 185 184 185 186 194 200 192 171 164 170 175 182 242 274
273 265 258 247 236 227 219 213 208 201 195 190 187 184 182 182 185 185 184 190 182 180 192 198 201 183 147 121 141 203 202 197 181 167 158 157 199 243
278 272 266 254 241 230 219 213 208 203 197 194 188 185 184 185 187 185 184 184 190 191 191 172 151 156 164 185 192 177 172 172 204 204 198 185 174 193
281 275 269 260 249 231 216 213 210 204 199 194 188 185 183 184 185 183 185 186 184 183 174 166 163 171 185 188 184 180 180 176 174 193 226 228 226 227